User: anonymous   Login
Location: Unspecified
(0.0000°N, 0.0000°E)
Time: 15:29:25
(UTC+00:00)
Language:

PAYLOAD B - Orbit

View from above orbital plane
View from above orbital plane
View from above satellite
View from above satellite

Ground track
Ground track

The orbit data is extracted from the following two-line orbital elements,

1 27056U 01058B   24193.94431899  .00000020  00000-0  54740-4 0  9996
2 27056  82.5391 310.8697 0006310  35.4367  66.7482 12.60540313 36920
Epoch (UTC): 11 July 2024 22:39:49
Eccentricity: 0.0006310
inclination: 82.5391°
perigee height: 1416 km
apogee height: 1425 km
right ascension of ascending node: 310.8697°
argument of perigee: 35.4367°
revolutions per day: 12.60540313
mean anomaly at epoch: 66.7482°
orbit number at epoch: 3692

The dashed part of the orbit path shows where the satellite is in the earth's shadow,  

DLR